sat.trackr.live / text

‹ back to catalog

STARLINK-35912

NORAD 66882 · 2025-283E

PAYLOAD ACTIVE UNKNOWN

§ Identity

Operator
Country
US
Launch date
2025-12-04
Launch site
AFWTR
Launch vehicle
Mass (kg)
RCS (m²)

Purposes: comms

External: N2YO · Heavens-Above · Gunter

§ Orbital elements

Epoch: 2026-05-25T01:40:27.542208Z

Period
93.85 min
Inclination
53.1611°
Eccentricity
0.0000942
Mean motion
15.34403189 rev/d
Perigee alt
462.0 km
Apogee alt
463.3 km
Semi-major
6,840.8 km
B*
6.5610e-4
RAAN
29.0155°
Arg perigee
88.4049°
Mean anomaly
271.7061°
Rev number
2,754

§ Raw data

STARLINK-359121 66882U 25283E   26145.06976322  .00021858  00000+0  65610-3 0  99972 66882  53.1611  29.0155 0000942  88.4049 271.7061 15.34403189 27549

JSON: /api/v1/satellites/66882 · /tle

For live sub-satellite position, see the globe view (requires WebGL).

§ Visibility from observer

Set your observer location to see the next 7 days of passes ≥ 10°. The values pass through the URL so the page stays shareable.

No JS? Fill the form by hand. The geolocation button needs JavaScript.